User: anonymous   Login
Location: ?????????
(38.0736°N, 23.2119°E)
Time: 12:22:57
(UTC+00:00)
Language:

USA 245 - Orbit

View from above orbital plane
View from above orbital plane
View from above satellite
View from above satellite

Ground track
Ground track

The orbit data is extracted from the following two-line orbital elements,

1 39232U 13043A   24174.90949896 0.00020000  00000-0  21737-3 0    00
2 39232  97.9276 236.7487 0518909 305.2115  54.7883 14.78678947    03
Epoch (UTC): 22 June 2024 21:49:40
Eccentricity: 0.0518909
inclination: 97.9276°
perigee height: 269 km
apogee height: 997 km
right ascension of ascending node: 236.7487°
argument of perigee: 305.2115°
revolutions per day: 14.78678947
mean anomaly at epoch: 54.7883°
orbit number at epoch: 0

The dashed part of the orbit path shows where the satellite is in the earth's shadow,  

DLR